User: anonymous   Login
Location: Downe
(51.3167°N, 0.0500°E)
Time: 23:34:50
(UTC+00:00)
Language:

Cosmos 839 Rocket - Orbit

View from above orbital plane
View from above orbital plane
View from above satellite
View from above satellite

Ground track
Ground track

The orbit data is extracted from the following two-line orbital elements,

1  9013U 76067B   20028.50189757 +.00000005 +00000-0 +20027-3 0  9992
2  9013 065.8678 311.6550 0707226 058.5238 308.2904 12.35340595964418
Epoch (UTC): 28 January 2020 12:02:43
Eccentricity: 0.0707226
inclination: 65.8678°
perigee height: 967 km
apogee height: 2085 km
right ascension of ascending node: 311.6550°
argument of perigee: 58.5238°
revolutions per day: 12.35340595
mean anomaly at epoch: 308.2904°
orbit number at epoch: 96441

The dashed part of the orbit path shows where the satellite is in the earth's shadow,  

DLR